{"data":{"norad_id":66623,"intl_designator":"2025-271G","name":"STARLINK-35920","alt_names":[],"object_type":"PAYLOAD","status":"ACTIVE","operator":null,"country":"US","launch_date":"2025-11-23","launch_site_code":"AFWTR","launch_vehicle":null,"mission":null,"orbit_class":"UNKNOWN","rcs_meters":null,"size_class":null,"mass_kg":null,"dimensions":null,"purposes":["comms"],"wikipedia_slug":null,"has_3d_model":false,"image_url":null,"decayed_at":null,"tle_current":{"epoch":"2026-09-20T10:11:08.840832Z","epoch_age_seconds":93038,"freshness":"FRESH","line1":"1 66623U 25271G   26263.42440788  .00019601  00000+0  58947-3 0  9998","line2":"2 66623  53.1575 310.2925 0002856  27.3041 332.8111 15.34413311 47456","mean_motion":15.34413311,"eccentricity":0.0002856,"inclination_deg":53.1575,"raan_deg":310.2925,"arg_perigee_deg":27.3041,"mean_anomaly_deg":332.8111,"bstar":0.00058947,"rev_number":4745,"period_min":93.846943954203,"perigee_km":460.70994472248,"apogee_km":464.61741006941,"semimajor_km":6840.8006773959,"source":"CELESTRAK","updated_at":"2026-09-21T09:00:35.983173Z"}}}